Location: Christian Reformed Church
(43.0975°N, 93.8113°W)
Time: 11:33:12
(UTC+00:00)

Okean 1-7 Rocket - Pass Details

Date: 16 March 2026
Orbit: 609 x 643 km, 82.5° (Epoch: 13 April)

Event Time Altitude Azimuth Distance (km) Brightness Sun altitude
Rises 10:22:32 0° 9° (N) 2,927 7.4 -22.9°
Reaches altitude 10° 10:25:47 10° 34° (NE) 2,006 6.9 -22.3°
Maximum altitude 10:28:13 14° 68° (ENE) 1,721 6.9 -21.9°
Drops below altitude 10° 10:30:38 10° 102° (ESE) 1,986 7.0 -21.5°
Sets 10:33:48 0° 127° (SE) 2,879 7.5 -20.9°
